User: anonymous   Login
Location: Brno
(49.2000°N, 16.6330°E)
Time: 02:38:24
(UTC+01:00)
Language:

Cosmos 1459 Rocket - Orbit

View from above orbital plane
View from above orbital plane
View from above satellite
View from above satellite

Ground track
Ground track

The orbit data is extracted from the following two-line orbital elements,

1 14059U 83042B   17021.80993908  .00000074  00000-0  57498-4 0  9991
2 14059  82.9724 170.5778 0041667 319.1259  40.6776 13.78575866695581
Epoch (UTC): 21 January 2017 19:26:18
Eccentricity: 0.0041667
inclination: 82.9724°
perigee height: 938 km
apogee height: 999 km
right ascension of ascending node: 170.5778°
argument of perigee: 319.1259°
revolutions per day: 13.78575866
mean anomaly at epoch: 40.6776°
orbit number at epoch: 69558

The dashed part of the orbit path shows where the satellite is in the earth's shadow,  

DLR